Provo, UT

9:30 AM MDT on July 28, 2017 (GMT -0600)
Provo Municipal

Weather History for KPVU - October, 2012

Change the Weather History Date:

Sunday, October 7, 2012

  Actual Average Record
Temperature  
Mean Temperature 46 °F -  
Max Temperature 60 °F 67 °F 83 °F (1991)
Min Temperature 33 °F 39 °F 33 °F (1992)
Degree Days  
Heating Degree Days 18    
Moisture  
Dew Point 26 °F    
Average Humidity 54    
Maximum Humidity 93    
Minimum Humidity 20    
Precipitation  
Precipitation 0.00 in - - ()
Sea Level Pressure  
Sea Level Pressure 30.17 in    
Wind  
Wind Speed 6 mph (SE)    
Max Wind Speed 10 mph    
Max Gust Speed -    
Visibility 12 miles    
Events      
Averages and records for this station are not official NWS values.
T = Trace of Precipitation, MM = Missing Value Source: NWS Daily Summary

Daily Weather History Graph

Daily Weather History Graph

Search for Another Location

Airport or City:

Trip Planner

Search our weather history database for the weather conditions in past years. The results will help you decide how hot, cold, wet, or windy it might be!

Date:

Astronomy

Oct. 07, 2012 Rise Set
Actual Time 7:29 AM MDT 6:58 PM MDT
Civil Twilight 7:02 AM MDT 7:25 PM MDT
Nautical Twilight 6:31 AM MDT 7:57 PM MDT
Astronomical Twilight 5:59 AM MDT 8:28 PM MDT
Moon No Moon Rise 2:09 PM MDT (10/7)
Length of Visible Light 12h 23m
Length of Day
11h 28m
Waning Gibbous, 55% of the Moon is Illuminated
Oct 7
Waning Gibbous
Oct 8
Last Quarter
Oct 15
New
Oct 21
First Quarter
Oct 29
Full

Hourly Weather History & Observations

Time (MDT) Temp. Windchill Dew Point Humidity Pressure Visibility Wind Dir Wind Speed Gust Speed Precip Events Conditions
12:15 AM 42.8 °F 37.0 °F 24.8 °F 49% 30.14 in 10.0 mi South 10.4 mph - N/A   Clear
12:35 AM 42.8 °F 37.0 °F 24.8 °F 49% 30.15 in 10.0 mi South 10.4 mph - N/A   Clear
12:55 AM 42.8 °F 38.6 °F 26.6 °F 53% 30.15 in 10.0 mi South 6.9 mph - N/A   Clear
1:15 AM 39.2 °F 33.0 °F 26.6 °F 61% 30.15 in 10.0 mi South 9.2 mph - N/A   Clear
1:35 AM 39.2 °F 35.0 °F 26.6 °F 61% 30.16 in 10.0 mi South 5.8 mph - N/A   Clear
1:55 AM 37.4 °F 33.8 °F 26.6 °F 65% 30.16 in 10.0 mi East 4.6 mph - N/A   Clear
2:15 AM 37.4 °F 32.8 °F 26.6 °F 65% 30.17 in 10.0 mi ESE 5.8 mph - N/A   Clear
2:35 AM 37.4 °F 32.8 °F 26.6 °F 65% 30.18 in 10.0 mi ESE 5.8 mph - N/A   Clear
2:55 AM 37.4 °F - 24.8 °F 60% 30.18 in 10.0 mi Calm Calm - N/A   Clear
3:55 AM 35.6 °F - 24.8 °F 65% 30.18 in 10.0 mi Calm Calm - N/A   Clear
4:15 AM 33.8 °F 30.8 °F 24.8 °F 70% 30.18 in 10.0 mi SSE 3.5 mph - N/A   Clear
4:35 AM 33.8 °F 29.6 °F 23.0 °F 65% 30.18 in 10.0 mi SSE 4.6 mph - N/A   Clear
5:15 AM 33.8 °F 29.6 °F 24.8 °F 70% 30.19 in 10.0 mi ESE 4.6 mph - N/A   Clear
5:35 AM 33.8 °F 29.6 °F 23.0 °F 65% 30.19 in 10.0 mi SE 4.6 mph - N/A   Clear
5:55 AM 33.8 °F 27.7 °F 21.2 °F 60% 30.19 in 10.0 mi ESE 6.9 mph - N/A   Clear
6:15 AM 33.8 °F 30.8 °F 21.2 °F 60% 30.19 in 10.0 mi ESE 3.5 mph - N/A   Clear
6:50 AM 33.8 °F - 21.2 °F 60% 30.20 in 15.0 mi Calm Calm - N/A   Clear
7:55 AM 35.6 °F - 21.2 °F 56% 30.22 in 15.0 mi Calm Calm - N/A   Clear
9:48 AM 42.8 °F 41.1 °F 41.0 °F 93% 30.25 in 10.0 mi Variable 3.5 mph - N/A   Clear
9:55 AM 37.4 °F 34.9 °F 24.8 °F 60% 30.23 in 15.0 mi Variable 3.5 mph - N/A   Clear
10:48 AM 48.2 °F - 23.0 °F 37% 30.25 in 15.0 mi Variable 5.8 mph - N/A   Clear
11:48 AM 51.8 °F - 21.2 °F 30% 30.24 in 15.0 mi Calm Calm - N/A   Clear
12:47 PM 53.6 °F - 26.6 °F 35% 30.23 in 15.0 mi Calm Calm - N/A   Clear
2:50 PM 57.2 °F - 15.8 °F 20% 30.17 in 15.0 mi Variable 5.8 mph - N/A   Clear
3:50 PM 57.2 °F - 17.6 °F 21% 30.15 in 15.0 mi Variable 5.8 mph - N/A   Clear
4:50 PM 60.8 °F - 42.8 °F 52% 30.14 in 15.0 mi Variable 5.8 mph - N/A   Clear
6:50 PM 55.4 °F - 28.4 °F 36% 30.11 in 15.0 mi Variable 5.8 mph - N/A   Clear
7:50 PM 48.2 °F - 28.4 °F 46% 30.11 in 15.0 mi Variable 4.6 mph - N/A   Clear
8:50 PM 50.0 °F - 33.8 °F 54% 30.12 in 15.0 mi Calm Calm - N/A   Clear
9:15 PM 48.2 °F - 26.6 °F 43% 30.13 in 10.0 mi NNW 6.9 mph - N/A   Clear
9:35 PM 42.8 °F 40.1 °F 30.2 °F 61% 30.13 in 10.0 mi North 4.6 mph - N/A   Clear
9:55 PM 44.6 °F 40.2 °F 30.2 °F 57% 30.13 in 10.0 mi ENE 8.1 mph - N/A   Clear
10:15 PM 42.8 °F 40.1 °F 28.4 °F 57% 30.14 in 10.0 mi ESE 4.6 mph - N/A   Clear
10:35 PM 42.8 °F 39.3 °F 26.6 °F 53% 30.14 in 10.0 mi South 5.8 mph - N/A   Clear
10:55 PM 39.2 °F 33.6 °F 26.6 °F 61% 30.14 in 10.0 mi SSE 8.1 mph - N/A   Clear
11:15 PM 39.2 °F 33.6 °F 23.0 °F 52% 30.14 in 10.0 mi SSE 8.1 mph - N/A   Clear
11:35 PM 42.8 °F 39.3 °F 21.2 °F 42% 30.14 in 10.0 mi SE 5.8 mph - N/A   Clear
11:55 PM 42.8 °F 40.1 °F 21.2 °F 42% 30.14 in 10.0 mi ESE 4.6 mph - N/A   Clear